Zurück zum Katalog

OBJECT A

AktivHEO
NORAD 100125·UNKNOWN·🇺🇸 United States

Gestartet Jul 21, 2026 von Cape Canaveral Space Force Station

Loading…

Nächste Überflüge (nächste 24 Stunden)

TLE

AktuellSource: Space-Track

Epoche: Sep 8, 2026, 01:41 UTC

1 A0125U 26167A   26251.07072669  .00000269  00000-0  34696-1 0  9999
2 A0125  24.2385  86.6268 7570047 201.8331  89.9616  1.67714659   845

Verfolge OBJECT A in Echtzeit mit AllMySat

Download on the App Store